Powrót do katalogu

STARLINK-34586

AktywnyŁącznośćSSO
NORAD 64950·PAYLOAD·🇺🇸 United States

Wystrzelony Jul 26, 2025 z Vandenberg Space Force Base

Loading…

Następne Przeloty (najbliższe 24 godziny)

TLE

ŚwieżeSource: CelesTrak SupGP

Epoka: Sep 15, 2026, 03:05 UTC

1 64950C 25158U   26258.12895833  .00001165  00000+0  36158-4 0  2584
2 64950  97.2849 116.4529 0001575  97.5885  97.7823 15.33452511    10

Śledź STARLINK-34586 w czasie rzeczywistym z AllMySat

Download on the App Store